Flag for U.S.A. Weather past 2 weeks in Lafayette, Louisiana, U.S.A.

Now
71 °F

Passing clouds.


Feels Like: 67 °F
Forecast: 70 / 83 °F
Wind: No wind

Location: Lafayette Regional Airport

Current Time: May 23, 2015 at 2:17:45 AM

Latest Report: May 23, 2015 at 1:53 AM


Visibility: 7 mi

Pressure: 30.14 "Hg

Humidity: 93%

Dew point: 69 °F

Location of LafayetteLocation

Historic Weather in Lafayette — Graph

°F

Lafayette temperature yesterday

Maximum temperature yesterday: 80 °F (at 6:53 PM)
Minimum temperature yesterday: 63 °F (at 3:53 AM)
Average temperature yesterday: 70 °F

Past Weeks' High & Low Weather Summary

 TemperatureHumidityPressure
High88 °F (May 9, 2:53 PM)100% (May 19, 7:53 AM)30.20 "Hg (May 19, 7:53 AM)
Low63 °F (May 22, 3:53 AM)48% (May 14, 3:53 PM)29.95 "Hg (May 20, 6:53 PM)
Average76 °F83%30.05 "Hg
* Reported May 8 12:53 AM — May 23 12:53 AM, Lafayette, Weather by CustomWeather, © 2015

Note: Actual official high and low records may vary slightly from our data, if they occured in-between our weather recording intervals... More about our weather records

Advertising

Lafayette weather history for previous 24 hours

 ConditionsComfort  
Time TempWeatherWind HumidityBarometerVisibility
12:53 AM
Sat, May 23
72 °FPassing clouds.3 mph91%30.15 "Hg8 mi
11:53 PM
Fri, May 22
72 °FPassing clouds.5 mph91%30.15 "Hg9 mi
10:53 PM73 °FPassing clouds.3 mph88%30.15 "Hg8 mi
9:53 PM73 °FPassing clouds.3 mph88%30.15 "Hg8 mi
8:53 PM74 °FPassing clouds.3 mph85%30.14 "Hg10 mi
7:53 PM77 °FPassing clouds.7 mph77%30.13 "Hg10 mi
6:53 PM80 °FSunny.5 mph69%30.12 "Hg10 mi
5:53 PM79 °FBroken clouds.3 mph72%30.13 "Hg10 mi
4:53 PM79 °FMore clouds than sun.No wind74%30.13 "Hg10 mi
3:53 PM78 °FPartly sunny.No wind71%30.13 "Hg10 mi
2:53 PM77 °FOvercast.No wind71%30.15 "Hg10 mi
1:53 PM76 °FOvercast.5 mph74%30.16 "Hg10 mi
12:53 PM74 °FOvercast.7 mph74%30.17 "Hg10 mi
11:53 AM72 °FOvercast.6 mph76%30.17 "Hg10 mi
11:00 AM71 °FOvercast.6 mph78%30.16 "Hg8 mi
9:53 AM67 °FLow clouds.7 mph85%30.16 "Hg9 mi
8:53 AM65 °FLow clouds.10 mph87%30.16 "Hg10 mi
7:53 AM64 °FLow clouds.10 mph87%30.17 "Hg10 mi
6:53 AM63 °FLow clouds.12 mph90%30.16 "Hg10 mi
5:53 AM63 °FLow clouds.10 mph90%30.14 "Hg10 mi
5:03 AM63 °FLow clouds.9 mph93%30.13 "Hg9 mi
4:53 AM63 °FLow clouds.8 mph93%30.13 "Hg10 mi
3:53 AM63 °FLow clouds.13 mph93%30.11 "Hg9 mi
2:53 AM65 °FLow clouds.9 mph91%30.09 "Hg10 mi
Weather by CustomWeather, © 2015

See weather overviewHow to use our weather pages